Weather in Blumenau

Brazil     26°57′22″S   49°05′27″W
temp.,
°C
wind,
m/s
gust,
m/s
humid.,
%
clouds,
%
prec.,
mm/h
press.,
hPa
HPBL,
m
26 january, tue
tue2600:00+21nnw11100100 0.2 101258
03:00+21nne11100100 0.5 101138
06:00+21wsw11100100 0.4 101139
09:00+22wnw129798 0.4 1013116
12:00+28nnw146584 0.3 1012833
15:00+30n255587 0.6 10101485
18:00+25n119294 3.0 100953
21:00+22se019896 3.1 101223
27 january, wed
wed2700:00+22nnw0199100 0.4 101223
03:00+21w1199100 0.4 101030
06:00+21nw119995 0.0 101023
09:00+28nw146659 0.0 1010505
12:00+34nnw254371 0.0 10081527
15:00+33ene354771 0.0 10051017
18:00+24ne1592100 1.1 1006210
21:00+22nnw1199100 6.9 100835
28 january, thu
thu2800:00+22w1198100 0.5 100823
03:00+21w1299100 0.5 100635
06:00+21w1297100 0.0 100736
09:00+25wnw1284100 0.0 1008173
12:00+26n1276100 0.0 1008244
15:00+26nne117899 0.0 1006130
18:00+26sw128195 0.1 100765
21:00+23ssw119797 0.9 100924
29 january, fri
fri2900:00+22sse1199100 1.4 101025
03:00+22w1199100 1.4 100924
06:00+22nnw11100100 1.0 100945
09:00+24nnw1193100 1.1 1011207
12:00+28nnw1268100 0.0 1009580
15:00+31n2454100 0.8 10071279
18:00+24sw1295100 1.3 100954
21:00+23sw1293100 1.7 101045
30 january, sat
sat3000:00+22wnw119596 0.4 101123
03:00+21w119998 0.9 101023
06:00+21w119889 0.1 101124
09:00+28nw146691 0.1 1012598
12:00+28nw116992 0.0 1011200
15:00+27wnw137781 0.3 1010197
18:00+28ssw117190 0.1 1010122
21:00+23s119995 5.6 101224